Tracking 30106 objects as of 23-Jan-2025
HD Live streaming from Space Station
objects crossing your sky now

COSMOS 1581

Track COSMOS 1581 now!
COSMOS 1581 is classified as:


NORAD ID: 15095
Int'l Code: 1984-071A
Perigee: 2,203.6 km
Apogee: 38,331.6 km
Inclination: 66.5 °
Period: 721.2 minutes
Semi major axis: 26638 km
RCS: 9.1322 m2 (large)
Launch date: July 3, 1984
Source: Commonwealth of Independent States (former USSR) (CIS)
Launch site: PLESETSK MISSILE AND SPACE COMPLEX (PKMTR)
Your satellite tracking list
Your tracking list is empty




NASA's NSSDC Master Catalog

Two Line Element Set (TLE):
1 15095U 84071A   25023.15717067  .00000488  00000-0  00000-0 0  9996
2 15095  66.5394  62.5090 6781124  13.1171 358.3144  1.99680257270284
Source of the keplerian elements: AFSPC